Tracking 19909 objects as of 21-Oct-2019
HD Live streaming from Space Station
objects crossing your sky now

COSMOS 860 COOLANT

Track COSMOS 860 COOLANT now!
10-day predictions


NORAD ID: 29195
Int'l Code: 1976-103H
Perigee: 920.6 km
Apogee: 978.7 km
Inclination: 64.7 °
Period: 103.9 minutes
Semi major axis: 7320 km
RCS: 0.0092 m2 (small)
Launch date: October 17, 1976
Source: Commonwealth of Independent States (former USSR) (CIS)
Launch site: TYURATAM MISSILE AND SPACE COMPLEX (TTMTR)

Note: This is SATELLITE DEBRIS
aabbcc
Your satellite tracking list
Your tracking list is empty




NASA's NSSDC Master Catalog

Two Line Element Set (TLE):
1 29195U 76103H   19291.40692989 -.00000028  00000-0  54433-4 0  9996
2 29195  64.6977 283.1996 0039693 131.4256 229.0224 13.86056099838464
Source of the keplerian elements: AFSPC